User: anonymous   Login
Location: Cañada de la Miga
(34.7595°N, 106.2317°W)
Time: 15:39:31
(UTC+00:00)
Language:

Transit 4A - Orbit

View from above orbital plane
View from above orbital plane
View from above satellite
View from above satellite

Ground track
Ground track

The orbit data is extracted from the following two-line orbital elements,

1   116U 61015A   22273.19285559  .00000003  00000-0  61065-4 0  9996
2   116  66.8109 327.5003 0072142 148.4846 212.0586 13.91847168108462
Epoch (UTC): 30 September 2022 04:37:42
Eccentricity: 0.0072142
inclination: 66.8109°
perigee height: 869 km
apogee height: 975 km
right ascension of ascending node: 327.5003°
argument of perigee: 148.4846°
revolutions per day: 13.91847168
mean anomaly at epoch: 212.0586°
orbit number at epoch: 10846

The dashed part of the orbit path shows where the satellite is in the earth's shadow,  

DLR